AFR88NM EDDF-LFPG

Flight info

Callsign AFR88NM
Flight time N/A
Altitude 24000
Route SOBRA2L/18 SOBRA Y180 DIK UN857 TOLVU/N0356F230 DCT RAPOR DCT VEDUS
Aircraft E190/M-SDE3GILORVWY/S

Departure

Time N/A
Airport Frankfurt Main Airport (EDDF)

Arrival

Time 2026-04-30 18:21
Airport Charles de Gaulle International Airport (LFPG)
Time Latitude Longitude Altitude Speed Heading
2026-04-30 17:39 49.92715 6.50906 24282 ft 409 kts 248°
2026-04-30 17:41 49.84227 6.18347 24270 ft 409 kts 247°
2026-04-30 17:42 49.82084 6.10206 24260 ft 409 kts 247°
2026-04-30 17:42 49.78858 5.97995 24261 ft 408 kts 247°
2026-04-30 17:43 49.76699 5.89861 24266 ft 409 kts 247°
2026-04-30 17:44 49.73452 5.77679 24254 ft 408 kts 247°
2026-04-30 17:44 49.70187 5.65498 24245 ft 409 kts 246°
2026-04-30 17:46 49.64720 5.45238 24236 ft 409 kts 246°
2026-04-30 17:47 49.60739 5.28805 24234 ft 409 kts 251°
2026-04-30 17:48 49.59251 5.11497 24227 ft 409 kts 270°
2026-04-30 17:48 49.59335 4.98344 24223 ft 410 kts 271°
2026-04-30 17:49 49.59456 4.80807 24221 ft 409 kts 270°
2026-04-30 17:50 49.59548 4.63319 24218 ft 409 kts 270°
2026-04-30 17:51 49.59596 4.51577 24067 ft 410 kts 270°
2026-04-30 17:52 49.59635 4.38207 23285 ft 418 kts 270°
2026-04-30 17:53 49.59667 4.16154 21773 ft 407 kts 269°
2026-04-30 17:54 49.56739 3.99931 20278 ft 391 kts 237°
2026-04-30 17:55 49.50958 3.86033 18865 ft 380 kts 234°
2026-04-30 17:56 49.46455 3.71553 17349 ft 375 kts 253°
2026-04-30 17:57 49.42579 3.61654 16196 ft 361 kts 222°
2026-04-30 17:58 49.37213 3.53665 15100 ft 356 kts 222°
2026-04-30 17:59 49.30977 3.42162 13658 ft 356 kts 251°
2026-04-30 18:00 49.28850 3.27459 13194 ft 354 kts 255°
2026-04-30 18:00 49.27192 3.16440 13178 ft 353 kts 255°
2026-04-30 18:01 49.26085 3.09117 13184 ft 354 kts 255°
2026-04-30 18:02 49.24415 2.98155 13178 ft 353 kts 255°
2026-04-30 18:02 49.22735 2.87200 13174 ft 352 kts 255°
2026-04-30 18:03 49.21567 2.79605 13164 ft 353 kts 255°
2026-04-30 18:04 49.19872 2.68668 13171 ft 353 kts 255°
2026-04-30 18:05 49.18102 2.55416 12704 ft 316 kts 265°
2026-04-30 18:06 49.17762 2.42194 11510 ft 308 kts 265°
2026-04-30 18:07 49.16975 2.29352 10353 ft 299 kts 262°
2026-04-30 18:08 49.16290 2.19963 9448 ft 293 kts 262°
2026-04-30 18:09 49.15391 2.07715 8251 ft 286 kts 262°
2026-04-30 18:10 49.14551 1.95791 7092 ft 278 kts 262°
2026-04-30 18:11 49.10758 1.87859 5984 ft 250 kts 178°
2026-04-30 18:11 49.05983 1.89060 5369 ft 231 kts 146°
2026-04-30 18:12 49.03067 1.94641 4774 ft 223 kts 128°
2026-04-30 18:13 49.01409 1.98169 4392 ft 220 kts 127°
2026-04-30 18:13 48.99740 2.03547 4012 ft 214 kts 92°
2026-04-30 18:14 49.00004 2.08541 4020 ft 186 kts 90°
2026-04-30 18:15 49.00339 2.14291 3977 ft 181 kts 88°
2026-04-30 18:15 49.00666 2.19981 3978 ft 181 kts 89°
2026-04-30 18:16 49.00879 2.23781 4009 ft 181 kts 88°
2026-04-30 18:16 49.01097 2.27615 3538 ft 178 kts 88°
2026-04-30 18:17 49.01198 2.29413 3317 ft 171 kts 88°
2026-04-30 18:17 49.01296 2.31163 3104 ft 166 kts 88°
2026-04-30 18:17 49.01490 2.34622 2692 ft 163 kts 88°
2026-04-30 18:18 49.01584 2.36331 2494 ft 160 kts 88°
2026-04-30 18:18 49.01677 2.38014 2246 ft 160 kts 88°
2026-04-30 18:18 49.01770 2.39685 2079 ft 153 kts 89°
2026-04-30 18:18 49.01856 2.41232 1885 ft 144 kts 88°
2026-04-30 18:19 49.01937 2.42719 1689 ft 138 kts 87°
2026-04-30 18:19 49.02015 2.44126 1497 ft 129 kts 90°
2026-04-30 18:19 49.02089 2.45482 1318 ft 125 kts 90°
2026-04-30 18:19 49.02159 2.46774 1147 ft 121 kts 88°
2026-04-30 18:20 49.02229 2.48064 1004 ft 122 kts 86°
2026-04-30 18:20 49.02312 2.49385 828 ft 126 kts 85°
2026-04-30 18:20 49.02399 2.50681 671 ft 124 kts 90°
2026-04-30 18:20 49.02454 2.51992 508 ft 123 kts 88°
2026-04-30 18:21 49.02514 2.53250 357 ft 112 kts 86°
2026-04-30 18:21 49.02573 2.54312 352 ft 92 kts 84°
2026-04-30 18:21 49.02612 2.55061 353 ft 35 kts 88°
2026-04-30 18:21 49.02557 2.55337 358 ft 27 kts 115°
2026-04-30 18:22 49.02491 2.55545 358 ft 14 kts 116°
2026-04-30 18:22 49.02291 2.55632 354 ft 18 kts 173°
2026-04-30 18:22 49.02164 2.55651 353 ft 19 kts 180°
2026-04-30 18:23 49.02074 2.55695 355 ft 10 kts 88°
2026-04-30 18:23 49.02076 2.55809 359 ft 12 kts 86°
2026-04-30 18:23 49.02086 2.55942 354 ft 14 kts 84°
2026-04-30 18:23 49.02096 2.56096 354 ft 16 kts 85°
2026-04-30 18:24 49.02024 2.56448 354 ft 20 kts 86°
2026-04-30 18:24 49.01989 2.56637 354 ft 17 kts 159°
2026-04-30 18:24 49.01952 2.56793 354 ft 18 kts 86°
2026-04-30 18:25 49.01959 2.57001 358 ft 21 kts 88°
2026-04-30 18:25 49.01984 2.57458 354 ft 23 kts 86°
2026-04-30 18:25 49.01998 2.57709 354 ft 25 kts 87°
2026-04-30 18:26 49.01737 2.57997 354 ft 28 kts 175°
2026-04-30 18:26 49.01535 2.58023 357 ft 30 kts 175°
2026-04-30 18:26 49.01318 2.58049 362 ft 32 kts 175°
2026-04-30 18:27 49.00921 2.58104 354 ft 11 kts 169°
2026-04-30 18:27 49.00912 2.58193 360 ft 10 kts 86°
2026-04-30 18:28 49.00923 2.58449 354 ft 14 kts 85°
2026-04-30 18:28 49.00932 2.58610 356 ft 16 kts 85°
2026-04-30 18:28 49.00962 2.58981 354 ft 19 kts 73°
2026-04-30 18:29 49.00989 2.59190 354 ft 21 kts 85°
2026-04-30 18:29 49.00736 2.59558 352 ft 25 kts 176°
2026-04-30 18:30 49.00531 2.59584 355 ft 5 kts 175°
2026-04-30 18:30 49.00394 2.59604 355 ft 11 kts 173°
2026-04-30 18:31 49.00317 2.59643 352 ft 12 kts 115°
2026-04-30 18:31 49.00334 2.59904 359 ft 10 kts 57°
2026-04-30 18:32 49.00447 2.59917 352 ft 9 kts
2026-04-30 18:32 49.00477 2.59970 352 ft 3 kts 69°
2026-04-30 18:32 49.00482 2.59994 356 ft 0 kts 70°